User: anonymous
Location: Fort Wayne
(41.1310°N, 85.1290°W)
Time: 02:16:32
(UTC-04:00)
Language:

Cosmos 2082 - Orbit

View from above orbital plane
View from above orbital plane
View from above satellite
View from above satellite

Ground track
Ground track

The orbit data is extracted from the following two-line orbital elements,

1 20624U 90046A   14232.13467424 -.00000023  00000-0  12722-4 0  9923
2 20624 071.0407 214.5277 0013891 169.8550 261.7260 14.14091985251294
Epoch (UTC): 20 August 2014 03:13:55
Eccentricity: 0.0013891
inclination: 71.0407°
perigee height: 835 km
apogee height: 855 km
right ascension of ascending node: 214.5277°
argument of perigee: 169.8550°
revolutions per day: 14.14091985
mean anomaly at epoch: 261.7260°
orbit number at epoch: 25129

The dashed part of the orbit path shows where the satellite is in the earth's shadow,  

DLR